星链-32293 (STARLINK-32293)

导读

STARLINK-32293是美国SpaceX公司星链(Starlink)星座中的一颗卫星,于2024年10月15日由猎鹰9号火箭从加利福尼亚州范登堡太空军基地发射入轨,本次任务共将20颗星链卫星送入低地球轨道,其中13颗具备直连基站功能。星链星座旨在为全球缺乏传统基础设施的偏远地区提供高速低延迟的宽带互联网服务。

Basic Information
目录编号:
61526
目录名称:
STARLINK-32293
国际标识:
2024-183T
轨道中心:
EARTH
卫星名称:
星链-32293
卫星全名:
星链-32293 (STARLINK-32293)
卫星状态:
在轨 (已飞行689 天)
发射日期:
2024-10-15 UTC
国别 :
美国 (US)
星等 :
--
Orbit Information
数据来源 国际轨道数据
星历时间: 2026-09-03T17:44:42+0800
20小时前
查看轨道信息
半长轴: 6840.954km
偏心率: 0.0001222
轨道倾角: 53.162°
近地点辐角 91.268°
升交点赤经 35.397°
平近点角 268.847°
近地点: 461.981km
远地点: 463.653km
周期: 93.850分钟
每日圈数: 15.343618
Detailed Information
固有亮度:
5
最大亮度:
2.5
卫星平台:
Starlink V1.0
覆盖范围:
全球
运营商:
太空探索技术公司
运营商所在国:
美国
制造商(研发单位):
太空探索技术公司
制造商所在国:
美国
使用方式:
暂无
Satellite Introduction
Starlink 计划是 SpaceX 推出的全球卫星互联网项目,通过发射低轨道卫星,为全球尤其是偏远地区提供高速、低延迟的互联网服务。自 2019 年起,Starlink 已部署数千颗卫星,旨在缩小全球数字鸿沟,推动互联网普及。该项目还为军事、航空等行业提供通信支持,带来广泛经济效益。
2D Orbit Map
3D Orbit Map
Orbit Altitude Analysis Chart
Orbit Inclination Analysis Chart
Orbit Comprehensive Analysis Chart
View Comprehensive Chart
Conjunction Data List
Event ID Objects TCA Miss Dist (km) Collision Risk Probability Collision Risk Index (CRI) Action
CDM_260905-070906-152606-568921
2026-09-05T
07:09:28+0000
1.178 km
极远距离
1.322552E-5 中风险 0.57
CDM_260905-053506-152606-568921
2026-09-05T
05:35:41+0000
1.441 km
极远距离
6.644061E-6 低风险 0.51
CDM_260904-232605-469006-152621
OBJECT J (54690)
2026-09-04T
23:26:06+0000
1.334 km
极远距离
5.855928E-6 低风险 0.5
CDM_260904-012803-947506-152623
2026-09-04T
01:28:25+0000
1.659 km
极远距离
3.479136E-6 低风险 0.46
CDM_260906-114002-069106-152621
USA 61 (20691)
2026-09-06T
11:40:19+0000
1.549 km
极远距离
2.382315E-6 低风险 0.43
CDM_260905-070505-113206-152621
2026-09-05T
07:05:14+0000
2.871 km
极远距离
1.267751E-6 低风险 0.37